• Join FlightAware (Why Join?)
  • Login
  • US Flag GB Flag 
11:26 EST


 

Airport Tracker/Info


-or-


 

Live Flight TrackerFlight Track Log ✈ N3701G ✈ 17-Jun-2012 ✈ 42VA

Flight Track Log - Related Links

Times and Time Zones

All times are in EDT time to prevent confusion due to time zone crossing. See the N3701G flight status page for this flight to view local times or setup timezone preferences in your user account.

Time Position Orientation Groundspeed Altitude Reporting Facility
EDT Latitude Longitude Course Direction KTS MPH feet Rate Location/Type
15:39 42.2117 -78.4694 170° South 136 157 3,400  Level Cleveland Center
15:44 42.0272 -78.4253 172° South 142 163 3,400  Level Cleveland Center
15:45 41.9897 -78.4181 182° South 142 163 3,400 -60 Level Cleveland Center
15:46 41.9522 -78.4194 172° South 142 163 3,300  Descending Cleveland Center
15:47 41.9144 -78.4122 178° South 142 163 3,400  Climbing Cleveland Center
15:48 41.8769 -78.4108 175° South 142 163 3,400  Level Cleveland Center
15:49 41.8414 -78.4064 175° South 142 163 3,500  Climbing Cleveland Center
15:50 41.8039 -78.4019 179° South 142 163 3,500  Level Cleveland Center
15:51 41.7642 -78.4006 178° South 142 163 3,500 -60 Level Cleveland Center
15:52 41.7267 -78.3992 171° South 142 163 3,400  Descending Cleveland Center
15:53 41.6911 -78.3919 169° South 142 163 3,500  Climbing Cleveland Center
15:54 41.6533 -78.3822 168° South 142 163 3,400 -60 Descending Cleveland Center
15:55 41.6178 -78.3722 166° South 142 163 3,400  Level Cleveland Center
15:56 41.5800 -78.3597 166° South 142 163 3,500  Climbing Cleveland Center
15:57 41.5422 -78.3469 170° South 142 163 3,500 -60 Level Cleveland Center
15:58 41.5156 -78.3406 172° South 143 165 3,400 -60 Descending New York Center
15:59 41.4764 -78.3333 166° South 143 165 3,400  Level New York Center
16:00 41.4397 -78.3208 172° South 143 165 3,400  Level New York Center
16:01 41.4006 -78.3139 169° South 143 165 3,400  Level New York Center
16:02 41.3636 -78.3042 172° South 143 165 3,400  Level New York Center
16:03 41.3267 -78.2972 172° South 143 165 3,400  Level New York Center
16:04 41.2894 -78.2903 178° South 143 165 3,400  Level New York Center
16:05 41.2500 -78.2886 182° South 143 165 3,400  Level New York Center
16:06 41.2125 -78.2900 178° South 143 165 3,400  Level New York Center
16:07 41.1750 -78.2886 178° South 143 165 3,400  Level New York Center
16:08 41.1356 -78.2869 172° South 143 165 3,400  Level New York Center
16:09 41.0983 -78.2803 178° South 143 165 3,400  Level New York Center
16:10 41.0589 -78.2786 172° South 143 165 3,400  Level New York Center
16:11 41.0219 -78.2717 179° South 143 165 3,400  Level New York Center
16:12 40.9864 -78.2706 169° South 143 165 3,400  Level New York Center
16:13 40.9494 -78.2608 172° South 143 165 3,500  Climbing New York Center
16:14 40.9144 -78.2544 180° South 143 165 3,500 -60 Level New York Center
16:15 40.8814 -78.2542 166° South 136 157 3,400 -60 Descending Cleveland Center
16:16 40.8289 -78.2369 169° South 137 158 3,400  Level Cleveland Center
16:17 40.7914 -78.2272 168° South 132 152 3,400  Level Cleveland Center
16:18 40.7556 -78.2175 161° South 129 148 3,400  Level Cleveland Center
16:19 40.7219 -78.2022 166° South 135 155 3,400  Level Cleveland Center
16:20 40.6842 -78.1900 166° South 136 157 3,400  Level Cleveland Center
16:21 40.6464 -78.1775 163° South 135 155 3,400  Level Cleveland Center
16:22 40.6086 -78.1625 167° South 138 159 3,500  Climbing Cleveland Center
16:23 40.5769 -78.1528 165° South 135 155 3,400 -60 Descending Cleveland Center
16:24 40.5414 -78.1406 169° South 136 157 3,400  Level Cleveland Center
16:25 40.4953 -78.1286 172° South 136 157 3,500  Climbing Cleveland Center
16:26 40.4575 -78.1217 173° South 139 160 3,500 -60 Level Cleveland Center
16:27 40.4178 -78.1150 172° South 141 162 3,400  Descending Cleveland Center
16:28 40.3800 -78.1083 178° South 141 162 3,500  Climbing Cleveland Center
16:29 40.3425 -78.1069 182° South 139 160 3,400 -60 Descending Cleveland Center
16:30 40.3031 -78.1083 185° South 138 159 3,400  Level Cleveland Center
16:31 40.2656 -78.1125 175° South 138 159 3,400  Level Cleveland Center
16:43 39.8156 -78.0606 169° South 142 163 3,400  Level Washington Center
16:46 39.6994 -78.0322 166° South 142 163 3,400  Level Washington Center
16:47 39.6622 -78.0203 170° South 142 163 3,400  Level Washington Center
16:48 39.6186 -78.0106 173° South 142 163 3,400  Level Washington Center
16:49 39.5811 -78.0042 178° South 142 163 3,400  Level Washington Center
16:50 39.5417 -78.0028 176° South 142 163 3,500  Climbing Washington Center
16:51 39.5000 -77.9986 184° South 142 163 3,500 -60 Level Washington Center
16:52 39.4583 -78.0025 185° South 142 163 3,400 -60 Descending Washington Center
16:53 39.4186 -78.0067 178° South 147 169 3,400  Level Washington Center
16:54 39.3811 -78.0053 175° South 142 163 3,400  Level Washington Center
16:56 39.3333 -78.0000 180° South 142 163 3,400  Level Potomac TRACON
16:57 39.2833 -78.0000 180° South 144 166 3,400  Level Potomac TRACON
16:58 39.2500 -78.0000 166° South 141 162 3,400  Level Potomac TRACON
16:59 39.2000 -77.9833 180° South 137 158 3,400  Level Potomac TRACON
17:00 39.1667 -77.9833 180° South 134 154 3,500  Climbing Potomac TRACON
17:01 39.1333 -77.9833 180° South 140 161 3,400 -60 Descending Potomac TRACON
17:02 39.0833 -77.9833 159° South 142 163 3,400  Level Potomac TRACON
17:03 39.0500 -77.9667 180° South 141 162 3,400  Level Potomac TRACON
17:04 39.0000 -77.9667 159° South 135 155 3,400  Level Potomac TRACON
17:05 38.9667 -77.9500 142° Southeast 137 158 3,500  Climbing Potomac TRACON
17:06 38.9333 -77.9167 159° South 146 168 3,400 -60 Descending Potomac TRACON
17:07 38.9000 -77.9000 142° Southeast 144 166 3,400  Level Potomac TRACON
17:08 38.8667 -77.8667 159° South 141 162 3,400 -60 Level Potomac TRACON
17:09 38.8333 -77.8500 142° Southeast 145 167 3,300  Descending Potomac TRACON
17:10 38.8000 -77.8167 159° South 140 161 3,400  Climbing Potomac TRACON
17:11 38.7667 -77.8000 142° Southeast 143 165 3,400  Level Potomac TRACON
17:12 38.7333 -77.7667 142° Southeast 141 162 3,400  Level Potomac TRACON
17:13 38.7000 -77.7333 165° South 144 166 3,400 -60 Level Potomac TRACON
17:14 38.6500 -77.7167 142° Southeast 148 170 3,300  Descending Potomac TRACON
17:16 38.5833 -77.6500 142° Southeast 150 173 3,400 60 Climbing Potomac TRACON
17:17 38.5500 -77.6167 180° South 147 169 3,500  Climbing Potomac TRACON
17:18 38.5167 -77.6167 132° Southeast 141 162 3,400 -60 Descending Potomac TRACON
17:21 38.4333 -77.5000 130° Southeast 143 165 3,400  Level Potomac TRACON
17:22 38.4000 -77.4500 159° South 144 166 3,400  Level Potomac TRACON
17:23 38.3667 -77.4333 142° Southeast 143 165 3,400  Level Potomac TRACON
17:24 38.3333 -77.4000 142° Southeast 147 169 3,400  Level Potomac TRACON
17:25 38.3000 -77.3667 142° Southeast 149 171 3,400  Level Potomac TRACON
17:26 38.2667 -77.3333 131° Southeast 145 167 3,400  Level Potomac TRACON
17:33 38.0833 -77.0667 159° South 169 194 3,600  Climbing Potomac TRACON
17:34 38.0500 -77.0500 152° Southeast 163 188 3,500 -120 Descending Potomac TRACON
17:35 38.0000 -77.0167 142° Southeast 176 203 3,400 -60 Descending Potomac TRACON
17:36 37.9667 -76.9833 158° South 173 199 3,400  Level Potomac TRACON
17:37 37.9333 -76.9667 142° Southeast 196 226 3,400  Level Potomac TRACON
17:38 37.9000 -76.9333 158° South 157 181 3,400  Level Potomac TRACON
17:39 37.8667 -76.9167 152° Southeast 146 168 3,400  Level Potomac TRACON
17:40 37.8167 -76.8833 158° South 174 200 3,500  Climbing Potomac TRACON
17:41 37.7833 -76.8667 142° Southeast 147 169 3,400 -60 Descending Potomac TRACON
17:42 37.7500 -76.8333 142° Southeast 151 174 3,400  Level Potomac TRACON
17:43 37.7167 -76.8000 158° South 155 178 3,400  Level Potomac TRACON
17:44 37.6833 -76.7833 142° Southeast 167 192 3,400  Level Potomac TRACON
17:45 37.6500 -76.7500 152° Southeast 163 188 3,400  Level Potomac TRACON
17:46 37.6000 -76.7167 158° South 149 171 3,400  Level Potomac TRACON
17:47 37.5667 -76.7000 142° Southeast 160 184 3,400  Level Potomac TRACON
17:48 37.5333 -76.6667 152° Southeast 151 174 3,400  Level Potomac TRACON
17:49 37.4833 -76.6333 167° South 166 191 3,400  Level Potomac TRACON
17:50 37.4658 -76.6281 143° Southeast 153 176 3,400 -120 Level Washington Center
17:51 37.4119 -76.5775 148° Southeast 159 183 3,200 -60 Descending Washington Center
17:52 37.3789 -76.5511 149° Southeast 156 180 3,300 120 Climbing Washington Center
17:53 37.3394 -76.5217 154° Southeast 149 171 3,500 60 Climbing Washington Center
17:54 37.3000 -76.4978 155° Southeast 150 173 3,500  Level Washington Center
17:55 37.2628 -76.4764 157° South 154 177 3,500  Level Washington Center
17:56 37.2231 -76.4553 163° South 156 180 3,500 120 Level Washington Center
17:57 37.1817 -76.4392 161° South 155 178 3,800 240 Climbing Washington Center
17:58 37.1442 -76.4231 153° Southeast 139 160 4,100 240 Climbing Washington Center
17:59 37.1067 -76.3992 157° South 147 169 4,300 120 Climbing Washington Center
18:00 37.0714 -76.3806 151° Southeast 145 167 4,400 -360 Climbing Washington Center
18:01 37.0300 -76.3517 143° Southeast 161 185 3,600 -540 Descending Washington Center
18:02 36.9989 -76.3228 142° Southeast 162 186 3,400 -120 Descending Washington Center
18:03 36.9636 -76.2886 146° Southeast 160 184 3,400  Level Washington Center
18:04 36.9261 -76.2569 156° South 154 177 3,400  Level Washington Center
18:05 36.8886 -76.2358 157° South 155 178 3,400  Level Washington Center
18:06 36.8492 -76.2147 139° Southeast 156 180 3,400  Level Washington Center
18:13 36.6667 -76.0167 311° West  Level FlightAware Approximate
18:14 36.6922 -76.0528 131° Southeast  Level Estimated
18:15 36.6667 -76.0167 311° West  Level Estimated
18:16 36.6922 -76.0528 131° Southeast  Level Estimated
18:17 36.6667 -76.0167 311° West  Level FlightAware Approximate
18:18 36.6922 -76.0528 131° Southeast  Level Estimated
18:19 36.6667 -76.0167 311° West  Level FlightAware Approximate
18:20 36.6922 -76.0528 131° Southeast  Level Estimated
18:21 36.6667 -76.0167 311° West  Level FlightAware Approximate
18:22 36.6922 -76.0528 131° Southeast  Level Estimated
18:23 36.6667 -76.0167 311° West  Level FlightAware Approximate
18:24 36.6922 -76.0528 131° Southeast  Level Estimated
18:25 36.6667 -76.0167 311° West  Level FlightAware Approximate
18:26 36.6922 -76.0528 131° Southeast  Level Estimated
18:27 36.6667 -76.0167 311° West  Level FlightAware Approximate
18:28 36.6922 -76.0528 131° Southeast  Level Estimated
18:29 36.6667 -76.0167 311° West  Level FlightAware Approximate
18:30 36.6922 -76.0528 131° Southeast  Level Estimated
18:31 36.6667 -76.0167 311° West  Level FlightAware Approximate
18:32 36.6922 -76.0528 311° West  Level Estimated